This is the latest recevied weather packets stored in our database for station/object EMGATE. If no packets are shown the sender has not sent any weather packets the latest 10 day(s).
| Time | Temp. | Humidity | Pressure | Rain* | Wind** | Luminosity | Snow |
|---|---|---|---|---|---|---|---|
| 1776954248 | 4.44° C | 62% | 1016.2 hPa | 0 mm | - | - | - |
| 1776953348 | 4.44° C | 59% | 1016.1 hPa | 0 mm | - | - | - |
| 1776952448 | 4.44° C | 60% | 1016.2 hPa | 0 mm | - | - | - |
| 1776951548 | 4.44° C | 61% | 1016 hPa | 0 mm | - | - | - |
| 1776950648 | 4.44° C | 67% | 1015.9 hPa | 0 mm | - | - | - |
| 1776949748 | 3.89° C | 68% | 1016 hPa | 0 mm | - | - | - |
| 1776948848 | 3.89° C | 70% | 1015.8 hPa | 0 mm | - | - | - |
| 1776947948 | 3.33° C | 72% | 1015.7 hPa | 0 mm | - | - | - |
| 1776947048 | 2.78° C | 73% | 1015.6 hPa | 0 mm | - | - | - |
| 1776946148 | 2.78° C | 74% | 1015.7 hPa | 0 mm | - | - | - |
| 1776945248 | 2.22° C | 75% | 1015.7 hPa | 0 mm | - | - | - |
| 1776944348 | 2.22° C | 75% | 1015.7 hPa | 0 mm | - | - | - |
| 1776943448 | 2.22° C | 76% | 1015.5 hPa | 0 mm | - | - | - |
| 1776942548 | 1.67° C | 77% | 1015.4 hPa | 0 mm | - | - | - |
| 1776941648 | 1.11° C | 77% | 1015.3 hPa | 0 mm | - | - | - |
| 1776940748 | 1.11° C | 77% | 1015.3 hPa | 0 mm | - | - | - |
| 1776939848 | 1.67° C | 76% | 1015.2 hPa | 0 mm | - | - | - |
| 1776938948 | 1.67° C | 76% | 1015.1 hPa | 0 mm | - | - | - |
| 1776938048 | 1.67° C | 76% | 1014.8 hPa | 0 mm | - | - | - |
| 1776937148 | 2.22° C | 76% | 1014.6 hPa | 0 mm | - | - | - |
| 1776936248 | 2.22° C | 77% | 1014.6 hPa | 0 mm | - | - | - |
| 1776935348 | 2.22° C | 76% | 1014.6 hPa | 0 mm | - | - | - |
| 1776934448 | 2.78° C | 76% | 1014.5 hPa | 0 mm | - | - | - |
| 1776933548 | 2.78° C | 79% | 1014.4 hPa | 0 mm | - | - | - |
| 1776932648 | 2.78° C | 77% | 1014.3 hPa | 0 mm | - | - | - |
* Rain latest hour (hover to see other rain measurements)
** Current wind speed in m/s (hover to see current wind gust speed)